EW9596 Weather Reports


time (UTC)temp
F
wind
direction
speed
knots
gust
knots
rain 1hr
in
rain 24hr
in
rain mn
in
humidity
%
barometer
mb
20260901203536 82 279 1.7 4.3 0.00 0.87 0.79 85 1014.3
20260901203036 81 233 1.7 3.5 0.00 0.87 0.79 87 1014.3
20260901202533 81 263 0.0 4.3 0.00 0.87 0.79 89 1014.3
20260901202032 81 257 1.7 4.3 0.00 0.87 0.79 90 1014.4
20260901201532 81 199 0.0 0.0 0.00 0.87 0.79 92 1014.3
20260901201031 81 201 0.0 4.3 0.00 0.87 0.79 92 1014.4
20260901200529 80 225 0.0 4.3 0.00 0.87 0.79 92 1014.5
20260901200035 80 275 0.0 2.6 0.00 0.87 0.79 93 1014.5
20260901195529 80 173 0.0 4.3 0.00 0.91 0.79 93 1014.4
20260901195028 80 175 0.0 4.3 0.00 0.91 0.79 93 1014.4
20260901194529 80 217 0.0 1.7 0.00 0.91 0.79 94 1014.4
20260901194030 80 218 0.0 3.5 0.00 0.91 0.79 94 1014.4
20260901193527 80 220 1.7 3.5 0.00 0.91 0.79 94 1014.5
20260901193026 80 226 0.9 3.5 0.00 0.91 0.79 94 1014.5
20260901192526 80 227 0.9 3.5 0.00 0.91 0.79 94 1014.6
20260901192025 79 167 0.0 1.7 0.00 0.91 0.79 95 1014.6
20260901191547 79 169 0.0 2.6 0.00 0.91 0.79 95 1014.6
20260901191024 79 295 0.9 2.6 0.00 0.91 0.79 95 1014.6
20260901190523 78 224 0.0 4.3 0.00 0.91 0.79 95 1014.6
20260901190023 78 259 1.7 6.1 0.00 0.91 0.79 95 1014.6
20260901185524 78 262 1.7 7.0 0.00 0.95 0.79 95 1014.6
20260901185021 77 229 2.6 7.0 0.00 0.95 0.79 94 1014.6
20260901184521 78 256 2.6 7.0 0.00 0.95 0.79 95 1014.6
20260901184020 78 242 1.7 3.5 0.00 0.95 0.79 95 1014.5
20260901183520 78 239 0.0 3.5 0.00 0.95 0.79 95 1014.6
20260901183018 78 240 0.9 3.5 0.00 0.95 0.79 95 1014.6
20260901182518 77 265 0.0 3.5 0.00 0.95 0.79 95 1014.5
20260901182016 77 252 0.9 3.5 0.00 0.95 0.79 95 1014.4
20260901181517 77 255 0.0 5.2 0.00 0.95 0.79 95 1014.4
20260901181017 77 213 1.7 5.2 0.00 0.95 0.79 95 1014.4
20260901180516 77 207 0.9 3.5 0.00 0.95 0.79 95 1014.3
20260901180018 77 211 1.7 3.5 0.00 0.95 0.79 95 1014.3
20260901175514 76 342 0.0 0.0 0.00 1.01 0.79 96 1014.4
20260901175012 75 9 0.0 0.0 0.00 1.01 0.79 96 1014.4
20260901174513 74 74 0.0 0.0 0.00 1.01 0.79 96 1014.4
20260901174011 74 76 0.0 0.0 0.00 1.01 0.79 95 1014.4
20260901173507 73 76 0.0 0.0 0.00 1.01 0.79 95 1014.5
20260901173007 73 64 0.0 0.0 0.00 1.01 0.79 95 1014.5
20260901172505 73 60 0.0 0.0 0.00 1.01 0.79 95 1014.5
20260901172006 73 60 0.0 0.0 0.00 1.01 0.79 95 1014.6
20260901171502 73 60 0.0 0.0 0.01 1.01 0.79 95 1014.5
20260901171001 73 59 0.0 0.0 0.01 1.01 0.79 95 1014.6
20260901170600 73 59 0.0 0.0 0.01 1.01 0.79 95 1014.6
20260901170059 73 59 0.0 0.0 0.01 1.01 0.79 94 1014.5
20260901165557 73 59 0.0 0.0 0.01 1.15 0.79 94 1014.5
20260901165056 73 59 0.0 0.0 0.01 1.15 0.79 94 1014.6
20260901164555 73 59 0.0 0.0 0.01 1.15 0.79 94 1014.7
20260901164054 73 59 0.0 0.0 0.01 1.15 0.79 94 1014.7
20260901163552 73 59 0.0 0.0 0.01 1.15 0.79 94 1014.7
20260901163050 73 59 0.0 0.0 0.01 1.15 0.79 94 1014.6
20260901162551 73 59 0.0 0.0 0.01 1.15 0.79 94 1014.7
20260901162047 73 59 0.0 0.0 0.01 1.15 0.79 95 1014.8
20260901161601 73 59 0.0 0.0 0.00 1.14 0.78 95 1014.7
20260901161045 73 59 0.0 0.0 0.00 1.14 0.78 95 1014.8
20260901160544 72 60 0.0 0.0 0.00 1.14 0.78 95 1014.7
20260901160043 72 60 0.0 0.0 0.00 1.14 0.78 95 1014.8
20260901155541 72 60 0.0 0.0 0.00 1.15 0.78 95 1014.8
20260901155039 72 60 0.0 0.0 0.00 1.15 0.78 95 1014.9
20260901154551 72 60 0.0 0.0 0.00 1.15 0.78 95 1014.9
20260901154040 72 60 0.0 0.0 0.00 1.15 0.78 94 1014.9
20260901153535 71 60 0.0 0.0 0.00 1.15 0.78 94 1015.0
20260901153040 71 60 0.0 0.0 0.00 1.15 0.78 94 1015.0
20260901152533 71 60 0.0 0.0 0.00 1.15 0.78 94 1015.0
20260901152032 71 60 0.0 0.0 0.00 1.15 0.78 94 1014.9
20260901151534 71 60 0.0 0.0 0.00 1.15 0.78 94 1014.9
20260901151033 71 60 0.0 0.0 0.00 1.15 0.78 94 1014.9
20260901150530 71 60 0.0 0.0 0.01 1.15 0.78 94 1014.8
20260901150038 71 60 0.0 0.0 0.03 1.15 0.78 94 1014.9
20260901145530 71 59 0.0 0.0 0.06 1.15 0.78 94 1014.9
20260901145029 71 59 0.0 0.0 0.10 1.15 0.78 94 1014.9
20260901144537 70 59 0.0 0.0 0.10 1.15 0.78 94 1014.8
20260901144026 70 60 0.0 0.0 0.17 1.15 0.78 94 1014.8
20260901143526 70 60 0.0 1.7 0.24 1.15 0.78 94 1014.9
20260901143025 70 60 0.0 2.6 0.27 1.15 0.78 94 1015.0
20260901142525 70 333 0.0 2.6 0.27 1.15 0.78 94 1015.0
20260901142024 70 333 0.0 2.6 0.27 1.15 0.78 94 1014.9
20260901141624 70 332 1.7 2.6 0.27 1.15 0.78 94 1014.9
20260901141023 70 272 0.0 0.0 0.27 1.15 0.78 94 1014.8
20260901140524 70 272 0.0 0.0 0.27 1.14 0.77 94 1015.0
20260901140023 70 272 0.0 0.0 0.26 1.12 0.75 94 1015.3
20260901135523 70 272 0.0 0.0 0.27 1.10 0.72 94 1015.3
20260901135024 70 178 0.0 0.0 0.25 1.06 0.68 94 1015.2
20260901134526 70 156 0.0 0.0 0.27 1.06 0.68 94 1015.0
20260901134023 70 178 0.0 0.0 0.23 0.98 0.60 94 1015.3
20260901133522 70 178 0.0 0.0 0.27 0.91 0.53 94 1015.2
20260901133022 70 178 0.0 0.0 0.30 0.89 0.51 94 1015.2
20260901132521 70 178 0.0 0.0 0.34 0.89 0.51 94 1015.2
20260901132021 69 178 0.0 0.0 0.35 0.89 0.51 94 1015.3
20260901131524 69 178 0.0 0.0 0.37 0.89 0.51 94 1015.3
20260901131020 69 178 0.0 0.0 0.42 0.89 0.51 94 1015.4
20260901130520 69 178 0.0 2.6 0.45 0.88 0.50 94 1015.5
20260901130025 69 179 0.9 2.6 0.45 0.87 0.49 94 1015.7
20260901125520 69 26 0.9 2.6 0.41 0.82 0.44 94 1015.8
20260901125019 69 167 0.0 4.3 0.40 0.81 0.43 94 1015.5
20260901124520 69 150 0.0 4.3 0.38 0.79 0.41 94 1015.4
20260901124017 69 98 0.0 0.9 0.34 0.75 0.37 94 1015.6
20260901123517 69 96 0.0 2.6 0.23 0.64 0.26 94 1015.8
20260901123016 69 95 0.9 2.6 0.17 0.57 0.20 94 1015.9
20260901122517 69 336 0.0 3.5 0.14 0.55 0.17 94 1016.0
20260901122016 68 119 0.9 3.5 0.13 0.54 0.16 94 1016.0
20260901121516 68 18 0.0 0.0 0.10 0.51 0.13 94 1016.4
20260901121015 68 133 0.0 0.0 0.06 0.47 0.09 94 1016.1
20260901120515 68 143 0.0 0.0 0.02 0.43 0.05 94 1016.0
20260901120014 68 144 0.0 0.0 0.00 0.41 0.03 94 1015.9
20260901115515 68 144 0.0 2.6 0.00 0.41 0.03 94 1015.3
20260901115016 68 325 0.0 2.6 0.00 0.41 0.03 94 1016.1
20260901114513 68 132 0.0 0.0 0.00 0.41 0.03 94 1015.5
20260901114012 68 133 0.0 0.0 0.00 0.41 0.03 94 1015.6
20260901113512 68 69 0.0 0.0 0.00 0.41 0.03 94 1015.8
20260901113011 68 69 0.0 1.7 0.01 0.41 0.03 94 1015.7
20260901112511 68 69 0.0 2.6 0.01 0.41 0.03 93 1015.4
20260901112011 68 69 0.9 2.6 0.01 0.41 0.03 94 1015.0
20260901111511 68 292 1.7 2.6 0.01 0.41 0.03 94 1015.0
20260901111011 68 301 0.0 1.7 0.01 0.41 0.03 93 1015.3
20260901110509 68 301 0.0 4.3 0.01 0.41 0.03 93 1015.0
20260901110010 67 300 0.9 4.3 0.01 0.41 0.03 94 1014.8
20260901105509 67 223 0.0 0.0 0.01 0.41 0.03 93 1014.7
20260901105011 67 222 0.0 0.0 0.01 0.41 0.03 93 1014.8
20260901104510 67 222 0.0 0.0 0.01 0.41 0.03 93 1015.1
20260901104010 67 222 0.0 0.0 0.01 0.41 0.03 93 1015.1
20260901103508 67 222 0.0 0.0 0.01 0.41 0.03 93 1015.3
20260901103008 67 222 0.0 0.0 0.00 0.40 0.02 93 1015.3
20260901102508 67 223 0.0 0.0 0.00 0.40 0.02 93 1015.4
20260901102008 67 223 0.0 0.0 0.00 0.40 0.02 93 1015.2
20260901101508 67 223 0.0 0.0 0.00 0.40 0.02 93 1015.1
20260901101010 67 222 0.0 0.0 0.00 0.40 0.02 93 1015.0
20260901100509 67 223 0.0 0.0 0.00 0.40 0.02 93 1015.0
20260901100006 67 222 0.0 0.0 0.00 0.40 0.02 93 1015.1
20260901095505 67 222 0.0 0.0 0.00 0.40 0.02 93 1015.1
20260901095007 67 222 0.0 0.0 0.00 0.40 0.02 93 1015.1
20260901094506 67 222 0.0 0.0 0.00 0.40 0.02 93 1015.1
20260901094004 67 223 0.0 0.0 0.00 0.40 0.02 93 1015.1
20260901093504 67 223 0.0 0.0 0.00 0.40 0.02 93 1015.1
20260901093005 67 222 0.0 0.0 0.00 0.40 0.02 93 1015.2
20260901092503 67 222 0.0 0.0 0.00 0.40 0.02 93 1015.3
20260901092003 67 222 0.0 0.0 0.00 0.40 0.02 93 1015.3
20260901091504 67 223 0.0 0.0 0.00 0.40 0.02 93 1015.4
20260901091003 67 223 0.0 0.0 0.00 0.40 0.02 93 1015.4
20260901090502 67 222 0.0 0.0 0.01 0.40 0.02 93 1015.3
20260901090007 67 222 0.0 0.0 0.01 0.40 0.02 93 1015.4
20260901085502 67 222 0.0 0.0 0.01 0.40 0.02 93 1015.6
20260901085105 67 222 0.0 0.0 0.01 0.40 0.02 93 1015.7
20260901084604 67 222 0.0 0.0 0.02 0.40 0.02 93 1016.0
20260901084100 67 223 0.0 0.0 0.02 0.40 0.02 93 1015.9
20260901083601 67 222 0.0 0.0 0.02 0.40 0.02 93 1016.0
20260901083059 67 222 0.0 0.0 0.02 0.40 0.02 93 1016.0
20260901082557 67 222 0.0 0.0 0.02 0.40 0.02 93 1016.0
20260901082059 67 223 0.0 0.0 0.02 0.40 0.02 93 1016.0
20260901081558 67 222 0.0 0.0 0.02 0.40 0.02 93 1016.1
20260901081057 67 222 0.0 0.0 0.02 0.40 0.02 93 1016.2
20260901080557 67 223 0.0 0.0 0.01 0.39 0.01 93 1016.2
20260901080104 67 222 0.0 0.0 0.01 0.39 0.01 93 1016.2
20260901075557 67 222 0.0 0.0 0.01 0.39 0.01 93 1016.2
20260901075056 67 222 0.0 0.0 0.01 0.39 0.01 93 1016.3
20260901074557 67 222 0.0 0.0 0.00 0.38 0.00 93 1016.3
20260901074055 67 130 0.0 0.0 0.00 0.38 0.00 93 1016.2
20260901073555 67 130 0.0 0.0 0.00 0.38 0.00 93 1016.1
20260901073101 67 130 0.0 0.0 0.00 0.38 0.00 93 1016.2
20260901072555 67 130 0.0 0.0 0.00 0.38 0.00 93 1016.2
20260901072055 67 130 0.0 0.0 0.00 0.38 0.00 93 1016.2
20260901071558 67 130 0.0 0.0 0.00 0.38 0.00 93 1016.2
20260901071057 67 130 0.0 0.0 0.00 0.38 0.00 93 1016.3
20260901070554 67 130 0.0 0.0 0.00 0.38 0.00 93 1016.3
20260901070104 67 130 0.0 0.0 0.00 0.38 0.00 93 1016.2
20260901065554 67 130 0.0 0.0 0.00 0.38 0.00 93 1016.3
20260901065054 67 130 0.0 0.0 0.00 0.38 0.00 93 1016.3
20260901064554 67 130 0.0 0.0 0.00 0.38 0.00 93 1016.3
20260901064054 67 130 0.0 0.0 0.00 0.38 0.00 93 1016.2
20260901063553 67 130 0.0 0.0 0.00 0.38 0.00 93 1016.2
20260901063054 67 130 0.0 0.0 0.00 0.38 0.00 93 1016.1
20260901062554 67 130 0.0 0.0 0.00 0.38 0.00 92 1016.2
20260901062053 67 130 0.0 0.0 0.00 0.38 0.00 92 1016.4
20260901061551 67 130 0.0 0.0 0.00 0.38 0.00 92 1016.4
20260901061050 67 130 0.0 0.0 0.00 0.38 0.00 92 1016.5
20260901060549 67 130 0.0 0.0 0.00 0.38 0.00 92 1016.6
20260901060048 67 130 0.0 0.0 0.00 0.38 0.00 92 1016.6
20260901055548 67 130 0.0 0.0 0.00 0.38 0.00 92 1016.8
20260901055048 67 130 0.0 0.0 0.00 0.38 0.00 92 1016.7
20260901054548 67 130 0.0 0.0 0.00 0.38 0.00 92 1016.7
20260901054049 67 130 0.0 0.0 0.00 0.38 0.00 92 1016.8
20260901053546 67 130 0.0 0.0 0.00 0.38 0.00 92 1016.9
20260901053052 67 130 0.0 0.0 0.00 0.38 0.00 92 1016.9
20260901052546 67 130 0.0 0.0 0.00 0.38 0.00 92 1016.9
20260901052045 67 130 0.0 0.0 0.00 0.38 0.00 92 1017.0
20260901051647 67 130 0.0 0.0 0.00 0.38 0.00 92 1017.1
20260901051044 67 130 0.0 0.0 0.00 0.38 0.00 92 1017.1
20260901050544 67 130 0.0 0.0 0.00 0.38 0.00 92 1017.1
20260901050051 67 130 0.0 0.0 0.00 0.38 0.00 92 1017.0
20260901045544 67 130 0.0 0.0 0.00 0.38 0.00 92 1017.0
20260901045044 67 130 0.0 0.0 0.00 0.38 0.00 92 1017.0
20260901044555 67 130 0.0 0.0 0.00 0.38 0.00 92 1017.0
20260901044042 67 130 0.0 0.0 0.00 0.38 0.00 92 1017.1
20260901043542 67 130 0.0 0.0 0.00 0.38 0.00 92 1017.1
20260901043042 67 130 0.0 0.0 0.00 0.38 0.00 92 1017.2
20260901042544 67 130 0.0 0.0 0.01 0.38 0.00 92 1017.1
20260901042041 67 130 0.0 0.0 0.01 0.38 0.00 92 1017.1
20260901041541 67 130 0.0 0.0 0.01 0.38 0.00 92 1017.1
20260901041043 68 130 0.0 0.0 0.01 0.38 0.00 92 1017.0
20260901040539 68 130 0.0 0.0 0.01 0.38 0.00 92 1017.1
20260901040048 68 130 0.0 0.0 0.01 0.38 0.00 92 1017.1
20260901035538 68 130 0.0 0.0 0.01 0.38 0.38 92 1017.1
20260901035038 68 130 0.0 0.0 0.01 0.38 0.38 92 1017.1
20260901034542 68 130 0.0 0.0 0.01 0.38 0.38 92 1017.0
20260901034038 68 130 0.0 0.0 0.01 0.38 0.38 92 1017.1
20260901033538 68 130 0.0 0.0 0.01 0.38 0.38 92 1017.1
20260901033053 68 130 0.0 0.0 0.01 0.38 0.38 92 1017.1
20260901032537 68 130 0.0 0.0 0.00 0.37 0.37 92 1017.1
20260901032037 68 130 0.0 0.0 0.00 0.37 0.37 92 1017.1
20260901031537 68 130 0.0 0.0 0.00 0.37 0.37 92 1017.2
20260901031037 68 130 0.0 0.0 0.00 0.37 0.37 92 1017.2
20260901030538 68 130 0.0 0.0 0.00 0.37 0.37 92 1017.2
20260901030037 68 130 0.0 0.0 0.00 0.37 0.37 92 1017.0
20260901025537 68 130 0.0 0.0 0.00 0.37 0.37 92 1017.1
20260901025038 68 130 0.0 0.0 0.00 0.37 0.37 92 1017.1
20260901024537 69 130 0.0 0.0 0.00 0.37 0.37 92 1017.1
20260901024036 69 130 0.0 0.0 0.00 0.37 0.37 92 1017.2
20260901023536 69 130 0.0 0.0 0.00 0.37 0.37 92 1017.3
20260901023039 69 130 0.0 0.0 0.00 0.37 0.37 92 1017.4
20260901022538 69 130 0.0 1.7 0.00 0.37 0.37 92 1017.3
20260901022035 69 130 0.0 1.7 0.00 0.37 0.37 92 1017.3
20260901021551 69 130 0.0 1.7 0.00 0.37 0.37 92 1017.3
20260901021035 69 130 0.0 1.7 0.00 0.37 0.37 92 1017.4
20260901020535 69 130 0.0 2.6 0.00 0.37 0.37 92 1017.5
20260901020035 69 130 0.0 2.6 0.00 0.37 0.37 92 1017.3
20260901015534 69 121 0.9 3.5 0.00 0.37 0.37 92 1017.4
20260901015034 69 344 1.7 4.3 0.00 0.37 0.37 92 1017.5
20260901014534 69 147 0.0 1.7 0.00 0.37 0.37 92 1017.5
20260901014034 68 346 0.0 3.5 0.00 0.37 0.37 92 1017.4
20260901013534 69 259 0.0 0.0 0.00 0.37 0.37 92 1017.7
20260901013047 68 211 0.0 0.0 0.00 0.37 0.37 91 1017.6
20260901012533 68 211 0.0 0.0 0.01 0.37 0.37 91 1017.7
20260901012033 68 205 0.0 0.0 0.01 0.37 0.37 91 1017.7
20260901011547 69 202 0.0 0.0 0.01 0.37 0.37 91 1017.8
20260901011033 69 75 0.0 0.0 0.01 0.37 0.37 92 1017.7
20260901010535 69 133 0.0 0.0 0.01 0.37 0.37 91 1017.7
20260901010033 69 133 0.0 0.0 0.01 0.37 0.37 91 1017.6
20260901005533 69 133 0.0 0.0 0.01 0.37 0.37 92 1017.7
20260901005036 69 133 0.0 0.0 0.01 0.37 0.37 92 1017.6
20260901004532 69 133 0.0 0.0 0.01 0.37 0.37 92 1017.4
20260901004032 69 133 0.0 0.0 0.01 0.37 0.37 91 1017.4
20260901003531 69 133 0.0 0.0 0.01 0.37 0.37 92 1017.3
20260901003040 69 133 0.0 0.0 0.01 0.37 0.37 91 1017.3
20260901002531 69 133 0.0 0.0 0.00 0.36 0.36 91 1017.2
20260901002032 69 133 0.0 0.0 0.00 0.36 0.36 91 1017.1
20260901001531 69 133 0.0 0.0 0.00 0.36 0.36 91 1017.1
20260901001032 69 133 0.0 0.0 0.00 0.36 0.36 91 1017.1
20260901000531 69 133 0.0 0.0 0.00 0.36 0.36 91 1017.1
20260901000033 69 133 0.0 0.0 0.00 0.36 0.36 91 1017.2
20260831235529 69 133 0.0 0.0 0.00 0.36 0.36 91 1017.2
20260831235030 69 133 0.0 0.0 0.00 0.36 0.36 91 1017.2
20260831234529 69 133 0.0 0.0 0.00 0.36 0.36 91 1017.3
20260831234027 69 133 0.0 0.0 0.00 0.36 0.36 91 1017.2
20260831233528 69 133 0.0 0.0 0.01 0.36 0.36 91 1017.3
20260831233028 69 133 0.0 0.0 0.01 0.36 0.36 91 1017.4
20260831232527 69 133 0.0 0.0 0.01 0.36 0.36 91 1017.4
20260831232027 69 133 0.0 0.0 0.02 0.36 0.36 91 1017.4
20260831231526 69 133 0.0 0.0 0.02 0.36 0.36 91 1017.4
20260831231026 69 133 0.0 0.0 0.02 0.36 0.36 91 1017.5
20260831230525 69 133 0.0 0.0 0.02 0.36 0.36 91 1017.5
20260831230025 69 133 0.0 0.0 0.02 0.36 0.36 91 1017.6
20260831225524 69 133 0.0 0.0 0.02 0.36 0.36 91 1017.7
20260831225024 69 133 0.0 0.0 0.03 0.36 0.36 91 1017.7
20260831224524 69 133 0.0 0.0 0.03 0.36 0.36 91 1017.7
20260831224024 69 133 0.0 0.0 0.02 0.35 0.35 91 1017.8
20260831223522 69 133 0.0 0.0 0.02 0.35 0.35 91 1017.9
20260831223028 69 133 0.0 0.0 0.02 0.35 0.35 91 1018.0
20260831222523 69 133 0.0 0.0 0.03 0.35 0.35 91 1018.1
20260831222020 69 133 0.0 0.0 0.02 0.34 0.34 91 1018.1
20260831221520 69 133 0.0 0.0 0.02 0.34 0.34 91 1018.2
20260831221019 69 133 0.0 0.0 0.02 0.34 0.34 91 1018.3
20260831220518 69 133 0.0 0.0 0.02 0.34 0.34 91 1018.4
20260831220025 69 133 0.0 0.9 0.02 0.34 0.34 91 1018.3
20260831215518 69 133 0.0 0.9 0.02 0.34 0.34 91 1018.3
20260831215019 69 133 0.0 0.0 0.01 0.33 0.33 91 1018.3
20260831214518 69 133 0.0 0.0 0.01 0.33 0.33 91 1018.3
20260831214018 69 133 0.0 0.0 0.01 0.33 0.33 91 1018.4
20260831213518 69 133 0.0 0.0 0.01 0.33 0.33 91 1018.3
20260831213018 69 133 0.0 0.0 0.01 0.33 0.33 91 1018.4
20260831212518 69 133 0.0 0.9 0.01 0.32 0.32 91 1018.4
20260831212018 69 133 0.0 0.9 0.01 0.32 0.32 91 1018.5
20260831211528 69 133 0.0 0.0 0.01 0.32 0.32 91 1018.5
20260831211016 70 133 0.0 0.0 0.01 0.32 0.32 91 1018.5
20260831210521 70 133 0.0 0.0 0.01 0.32 0.32 91 1018.5
20260831210017 70 133 0.0 0.0 0.02 0.32 0.32 91 1018.5
20260831205517 70 133 0.0 0.9 0.03 0.32 0.32 91 1018.3
20260831205021 70 133 0.0 0.9 0.04 0.32 0.32 91 1018.4
20260831204517 70 133 0.0 2.6 0.04 0.32 0.32 91 1018.4
20260831204017 70 133 0.0 2.6 0.04 0.32 0.32 91 1018.4